Voltar ao catálogo

KINEIS-3A

AtivoComunicaçõesSSO
NORAD 61223·PAYLOAD·🇫🇷 France

Lançado Sep 20, 2024 de Rocket Lab Launch Complex 1

Loading…

Próximas Passagens (próximas 24 horas)

TLE

AtualizadoSource: Space-Track

Época: Sep 14, 2026, 11:15 UTC

1 61223U 24172D   26257.46940009  .00001294  00000-0  21244-3 0  9996
2 61223  98.0403 346.4940 0002742 139.2784 220.8628 14.72326188105915

Acompanhe KINEIS-3A em tempo real com AllMySat

Download on the App Store